Location: Boca do Mato
(22.9085°S, 43.2930°W)
Time: 19:54:27
(UTC+00:00)

Cosmos 2266 Rocket - Visible Passes

Search period start: 29 October 2020 00:00
Search period end: 08 November 2020 00:00
Orbit: 934 x 1008 km, 82.9° (Epoch: 28 October)

Date Brightness Start Highest point End Pass type
(mag) Time Alt. Az. Time Alt. Az. Time Alt. Az.
29 Oct 6.9 06:59:51 10° SE 07:03:33 16° ESE 07:07:11 10° ENE visible
29 Oct 7.3 22:04:25 10° WNW 22:07:09 13° WSW 22:09:55 10° SW visible
30 Oct 5.9 07:22:21 10° SSE 07:27:50 33° E 07:33:12 10° NE visible
01 Nov 7.1 06:28:21 10° SE 06:30:26 12° ESE 06:32:30 10° E visible
01 Nov 7.1 21:30:00 10° WNW 21:34:05 18° WSW 21:38:12 10° SW visible
02 Nov 6.3 06:49:50 10° SSE 06:54:47 25° E 06:59:37 10° NE visible
03 Nov 4.9 07:13:02 10° S 07:18:58 51° E 07:24:48 10° NNE visible
04 Nov 3.9 07:36:54 10° S 07:43:02 80° W 07:49:03 10° N visible
05 Nov 6.5 06:17:32 10° SE 06:21:41 19° ESE 06:25:48 10° ENE visible
06 Nov 5.4 06:40:18 10° SSE 06:45:57 38° E 06:51:29 10° NNE visible
07 Nov 4.1 07:03:56 10° S 07:10:03 78° E 07:16:04 10° N visible
